Coatesville, PA

5:38 AM EDT on June 25, 2017 (GMT -0400)
Chester County Carlson

Weather History for KMQS - March, 2014

Change the Weather History Date:

Wednesday, March 12, 2014

  Actual Average (KILG) Record (KILG)
Temperature  
Mean Temperature 44 °F -  
Max Temperature 60 °F 50 °F 85 °F (1990)
Min Temperature 26 °F 31 °F 9 °F (1934)
Degree Days  
Heating Degree Days 21    
Moisture  
Dew Point 40 °F    
Average Humidity 74    
Maximum Humidity 100    
Minimum Humidity 48    
Precipitation  
Precipitation 0.68 in - - ()
Sea Level Pressure  
Sea Level Pressure 29.35 in    
Wind  
Wind Speed 5 mph (South)    
Max Wind Speed 36 mph    
Max Gust Speed 53 mph    
Visibility 9 miles    
Events Rain , Snow    
Averages and records for this station are not official NWS values.
T = Trace of Precipitation, MM = Missing Value Source: NWS Daily Summary

Daily Weather History Graph

Daily Weather History Graph

Search for Another Location

Airport or City:

Trip Planner

Search our weather history database for the weather conditions in past years. The results will help you decide how hot, cold, wet, or windy it might be!

Date:

Astronomy

Mar. 12, 2014 Rise Set
Actual Time 7:19 AM EDT 7:07 PM EDT
Civil Twilight 6:52 AM EDT 7:34 PM EDT
Nautical Twilight 6:21 AM EDT 8:05 PM EDT
Astronomical Twilight 5:49 AM EDT 8:37 PM EDT
Moon 3:35 PM EDT (3/12) 4:50 AM EDT (3/12)
Length of Visible Light 12h 41m
Length of Day
11h 47m
Waxing Gibbous, 85% of the Moon is Illuminated
Mar 12
Waxing Gibbous
Mar 16
Full
Mar 23
Last Quarter
Mar 30
New
Apr 7
First Quarter

Hourly Weather History & Observations

Time (EDT) Temp. Windchill Dew Point Humidity Pressure Visibility Wind Dir Wind Speed Gust Speed Precip Events Conditions
12:15 AM 50.0 °F - 37.4 °F 62% 29.68 in 10.0 mi Calm Calm - N/A   Clear
12:35 AM 48.2 °F - 37.4 °F 66% 29.68 in 10.0 mi Calm Calm - N/A   Clear
12:55 AM 48.2 °F - 37.4 °F 66% 29.67 in 10.0 mi Calm Calm - N/A   Clear
1:15 AM 48.2 °F - 37.4 °F 66% 29.67 in 10.0 mi South 3.5 mph - N/A   Clear
1:35 AM 48.2 °F - 37.4 °F 66% 29.66 in 10.0 mi Calm Calm - N/A   Clear
1:55 AM 48.2 °F - 37.4 °F 66% 29.65 in 10.0 mi SE 3.5 mph - N/A   Clear
2:15 AM 46.4 °F - 37.4 °F 71% 29.65 in 10.0 mi Calm Calm - N/A   Clear
2:35 AM 44.6 °F - 37.4 °F 76% 29.65 in 10.0 mi Calm Calm - N/A   Clear
2:55 AM 46.4 °F - 37.4 °F 71% 29.63 in 10.0 mi Calm Calm - N/A   Clear
3:15 AM 46.4 °F 45.2 °F 37.4 °F 71% 29.61 in 10.0 mi East 3.5 mph - N/A   Clear
3:35 AM 39.2 °F - 37.4 °F 93% 29.59 in 10.0 mi Calm Calm - N/A   Clear
3:55 AM 42.8 °F 41.1 °F 37.4 °F 81% 29.59 in 10.0 mi East 3.5 mph - N/A   Clear
4:15 AM 42.8 °F 40.1 °F 37.4 °F 81% 29.57 in 10.0 mi ENE 4.6 mph - N/A   Clear
4:35 AM 42.8 °F - 37.4 °F 81% 29.56 in 10.0 mi Calm Calm - N/A   Clear
4:55 AM 42.8 °F - 37.4 °F 81% 29.57 in 10.0 mi Calm Calm - N/A   Clear
5:15 AM 41.0 °F - 37.4 °F 87% 29.56 in 10.0 mi Calm Calm - N/A   Clear
5:35 AM 42.8 °F - 37.4 °F 81% 29.56 in 10.0 mi Calm Calm - N/A   Clear
5:55 AM 42.8 °F - 37.4 °F 81% 29.55 in 10.0 mi Calm Calm - N/A   Clear
6:15 AM 42.8 °F 41.1 °F 37.4 °F 81% 29.54 in 10.0 mi North 3.5 mph - N/A   Clear
6:35 AM 42.8 °F - 37.4 °F 81% 29.53 in 10.0 mi Calm Calm - N/A   Clear
6:55 AM 42.8 °F - 37.4 °F 81% 29.52 in 10.0 mi Calm Calm - N/A   Clear
7:15 AM 44.6 °F 42.2 °F 37.4 °F 76% 29.51 in 10.0 mi East 4.6 mph - N/A   Clear
7:35 AM 42.8 °F 39.3 °F 37.4 °F 81% 29.51 in 10.0 mi East 5.8 mph - N/A   Clear
7:55 AM 42.8 °F 38.6 °F 37.4 °F 81% 29.49 in 10.0 mi East 6.9 mph - N/A   Clear
8:15 AM 42.8 °F 40.1 °F 37.4 °F 81% 29.49 in 10.0 mi East 4.6 mph - N/A   Clear
8:35 AM 44.6 °F 43.1 °F 37.4 °F 76% 29.48 in 9.0 mi ENE 3.5 mph - N/A   Clear
8:55 AM 44.6 °F 42.2 °F 37.4 °F 76% 29.47 in 10.0 mi East 4.6 mph - N/A   Clear
9:15 AM 46.4 °F 43.5 °F 37.4 °F 71% 29.45 in 10.0 mi ESE 5.8 mph - N/A   Clear
9:35 AM 46.4 °F 45.2 °F 37.4 °F 71% 29.44 in 10.0 mi SE 3.5 mph - N/A   Clear
9:55 AM 48.2 °F - 37.4 °F 66% 29.42 in 10.0 mi SE 4.6 mph - N/A   Clear
10:15 AM 48.2 °F - 37.4 °F 66% 29.41 in 10.0 mi SE 6.9 mph - N/A   Clear
10:35 AM 48.2 °F - 39.2 °F 71% 29.38 in 10.0 mi SE 4.6 mph - N/A   Clear
10:55 AM 50.0 °F - 39.2 °F 66% 29.36 in 10.0 mi SE 4.6 mph - N/A   Clear
11:15 AM 51.8 °F - 39.2 °F 62% 29.34 in 10.0 mi SSE 5.8 mph - N/A   Partly Cloudy
11:35 AM 53.6 °F - 39.2 °F 58% 29.33 in 10.0 mi South 5.8 mph - N/A   Partly Cloudy
11:55 AM 55.4 °F - 39.2 °F 54% 29.30 in 10.0 mi SSE 6.9 mph - N/A   Partly Cloudy
12:15 PM 57.2 °F - 39.2 °F 51% 29.28 in 10.0 mi SSE 5.8 mph - N/A   Partly Cloudy
12:35 PM 57.2 °F - 39.2 °F 51% 29.28 in 10.0 mi SSE 6.9 mph - N/A   Partly Cloudy
12:55 PM 60.8 °F - 41.0 °F 48% 29.27 in 10.0 mi South 8.1 mph - N/A   Scattered Clouds
1:15 PM 59.0 °F - 39.2 °F 48% 29.24 in 10.0 mi South 6.9 mph - N/A   Partly Cloudy
1:35 PM 59.0 °F - 39.2 °F 48% 29.23 in 10.0 mi South 9.2 mph 17.3 mph N/A   Scattered Clouds
2:15 PM 59.0 °F - 39.2 °F 48% 29.18 in 10.0 mi South 6.9 mph - N/A   Overcast
2:35 PM 59.0 °F - 41.0 °F 51% 29.18 in 10.0 mi SSW 5.8 mph - N/A   Mostly Cloudy
2:55 PM 57.2 °F - 42.8 °F 59% 29.16 in 10.0 mi SW 5.8 mph - N/A   Overcast
3:15 PM 59.0 °F - 42.8 °F 55% 29.14 in 10.0 mi SSW 8.1 mph - N/A Rain Light Rain
3:35 PM 59.0 °F - 46.4 °F 63% 29.12 in 8.0 mi SSW 9.2 mph 17.3 mph N/A Rain Light Rain
3:55 PM 57.2 °F - 48.2 °F 72% 29.11 in 8.0 mi South 9.2 mph 18.4 mph N/A Rain Light Rain
4:15 PM 57.2 °F - 50.0 °F 77% 29.10 in 10.0 mi SSW 10.4 mph 17.3 mph N/A   Mostly Cloudy
4:35 PM 59.0 °F - 51.8 °F 77% 29.08 in 10.0 mi South 11.5 mph 20.7 mph N/A   Scattered Clouds
4:55 PM 59.0 °F - 51.8 °F 77% 29.06 in 10.0 mi South 10.4 mph 18.4 mph N/A   Mostly Cloudy
5:15 PM 60.8 °F - 53.6 °F 77% 29.06 in 10.0 mi South 11.5 mph 23.0 mph N/A   Partly Cloudy
5:35 PM 59.0 °F - 53.6 °F 82% 29.04 in 10.0 mi South 10.4 mph 23.0 mph N/A   Partly Cloudy
5:55 PM 59.0 °F - 53.6 °F 82% 29.03 in 10.0 mi South 11.5 mph 26.5 mph N/A   Mostly Cloudy
6:15 PM 57.2 °F - 53.6 °F 88% 29.03 in 10.0 mi South 9.2 mph 18.4 mph N/A   Overcast
6:35 PM 53.6 °F - 51.8 °F 94% 29.09 in 3.0 mi NNW 10.4 mph - 0.15 in Rain Heavy Rain
6:55 PM 51.8 °F - 51.8 °F 100% 29.10 in 2.5 mi NW 5.8 mph - 0.41 in Rain Heavy Rain
7:15 PM 51.8 °F - 51.8 °F 100% 29.08 in 2.5 mi Calm Calm - 0.07 in Rain Rain
7:35 PM 51.8 °F - 51.8 °F 100% 29.09 in 2.0 mi WSW 3.5 mph - 0.14 in Rain Rain
7:55 PM 51.8 °F - 51.8 °F 100% 29.09 in 1.8 mi SW 4.6 mph - 0.22 in Rain Rain
8:15 PM 51.8 °F - 51.8 °F 100% 29.09 in 4.0 mi WNW 19.6 mph 24.2 mph 0.03 in Rain Rain
8:35 PM 50.0 °F - 48.2 °F 94% 29.11 in 9.0 mi WNW 21.9 mph 33.4 mph 0.05 in   Mostly Cloudy
8:55 PM 48.2 °F - 42.8 °F 82% 29.13 in 10.0 mi WNW 26.5 mph 38.0 mph 0.05 in   Mostly Cloudy
9:15 PM 41.0 °F 29.0 °F 37.4 °F 87% 29.18 in 10.0 mi NW 35.7 mph 52.9 mph N/A   Mostly Cloudy
9:35 PM 35.6 °F 22.3 °F 33.8 °F 93% 29.22 in 10.0 mi NW 31.1 mph 43.7 mph N/A   Overcast
9:55 PM 33.8 °F 20.1 °F 30.2 °F 87% 29.25 in 10.0 mi NW 29.9 mph 40.3 mph N/A   Overcast
10:15 PM 32.0 °F 19.2 °F 28.4 °F 87% 29.28 in 10.0 mi NNW 23.0 mph 38.0 mph N/A   Overcast
10:35 PM 32.0 °F 17.4 °F 24.8 °F 75% 29.30 in 10.0 mi NNW 31.1 mph 39.1 mph N/A   Overcast
10:55 PM 30.2 °F 14.9 °F 23.0 °F 75% 29.33 in 10.0 mi NW 31.1 mph 39.1 mph N/A   Mostly Cloudy
11:15 PM 28.4 °F 12.7 °F 19.4 °F 69% 29.36 in 10.0 mi NW 29.9 mph 39.1 mph N/A Snow Light Snow
11:35 PM 28.4 °F 14.7 °F 17.6 °F 64% 29.37 in 10.0 mi NNW 21.9 mph 42.6 mph N/A   Overcast
11:55 PM 26.6 °F 13.4 °F 15.8 °F 64% 29.37 in 10.0 mi NW 18.4 mph 32.2 mph N/A   Mostly Cloudy